Weather reports worldwide

Advertisment
Northolt, United Kingdom (3672): temperature & dewpoint: 25.03.2020 11:00:00 - 31.03.2020 11:00:00 (BST)Northolt, United Kingdom (3672): temperature -20cm & temperature -100cm: 25.03.2020 11:00:00 - 31.03.2020 11:00:00 (BST)Northolt, United Kingdom (3672): wind speed & gusts: 25.03.2020 11:00:00 - 31.03.2020 11:00:00 (BST)Northolt, United Kingdom (3672): wind direction: 25.03.2020 11:00:00 - 31.03.2020 11:00:00 (BST)Northolt, United Kingdom (3672): reduced air pressure: 25.03.2020 11:00:00 - 31.03.2020 11:00:00 (BST)Northolt, United Kingdom (3672): visibility: 25.03.2020 11:00:00 - 31.03.2020 11:00:00 (BST)Northolt, United Kingdom (3672): precipitation: 25.03.2020 11:00:00 - 31.03.2020 11:00:00 (BST)
Date & Time tt [°C] td [°C] tt -20cm [°C] tt -100cm [°C] ff [km/h] ff [kn] fx [km/h] fx [kn] dd ppp [hPa] vv [km] rr [mm]
31.03.2020 11:00:00 8,0 0,6 - - 26 14 - - ENE 1032,9 10 0,0
31.03.2020 10:00:00 6,5 1,8 7,4 8,5 24 13 - - NE 1033,1 40 0,0
31.03.2020 09:00:00 5,3 1,5 - - 18 10 - - NE 1032,9 10 0,0
31.03.2020 08:00:00 3,5 1,2 - - 18 10 - - NE 1032,8 10 0,0
31.03.2020 07:00:00 2,7 0,9 - - 15 8 - - NNE 1032,4 10 0,0
31.03.2020 06:00:00 2,6 1,0 - - 13 7 - - NNE 1032,2 24 0,0
31.03.2020 05:00:00 2,8 1,1 - - 13 7 - - NNE 1032,1 24 0,0
31.03.2020 04:00:00 3,2 1,6 - - 11 6 - - NE 1032,0 23 0,0
31.03.2020 03:00:00 3,4 1,7 - - 13 7 - - NNE 1032,1 10 0,0
31.03.2020 02:00:00 3,8 2,3 - - 9 5 - - NE 1032,2 21 0,0
31.03.2020 01:00:00 4,7 2,6 - - 15 8 - - NE 1032,3 10 0,2
31.03.2020 00:00:00 5,4 3,2 - - 16 9 - - NE 1032,3 10 0,0
30.03.2020 23:00:00 5,5 1,7 - - 18 10 - - NE 1032,3 10 0,0
30.03.2020 22:00:00 6,7 2,6 - - 22 12 - - NNE 1032,2 10 0,0
30.03.2020 21:00:00 6,9 2,1 - - 16 9 - - NE 1032,1 35 0,0
30.03.2020 20:00:00 7,8 2,0 - - 18 10 - - NNE 1031,8 10 0,0
30.03.2020 19:00:00 8,8 1,3 - - 24 13 - - NE 1031,5 10 0,0
30.03.2020 18:00:00 9,0 0,6 - - 26 14 - - NE 1031,5 10 0,0
30.03.2020 17:00:00 8,8 0,4 - - 26 14 48 26 NE 1031,8 10 0,0
30.03.2020 16:00:00 9,8 -0,3 - - 28 15 - - ENE 1031,8 10 0,0
30.03.2020 15:00:00 8,6 1,9 - - 21 11 - - NE 1032,4 10 0,0
30.03.2020 14:00:00 8,2 2,4 - - 16 9 - - NNE 1033,2 10 0,0
30.03.2020 13:00:00 7,0 2,2 - - 18 10 - - NE 1034,0 10 0,0
30.03.2020 12:00:00 6,4 2,4 - - 15 8 - - NNE 1034,6 10 0,0
30.03.2020 11:00:00 6,1 1,2 - - 16 9 - - NNE 1035,3 10 0,0
30.03.2020 10:00:00 4,6 0,6 7,4 8,7 16 9 - - N 1036,0 10 0,0
30.03.2020 09:00:00 4,0 -1,8 - - 11 6 - - N 1036,2 10 0,0
30.03.2020 08:00:00 3,3 -1,7 - - 13 7 - - N 1036,5 35 0,0
30.03.2020 07:00:00 3,0 -1,5 - - 11 6 - - N 1037,0 10 0,0
30.03.2020 06:00:00 2,9 -1,4 - - 15 8 - - N 1036,8 10 0,0
30.03.2020 05:00:00 2,3 -1,1 - - 8 4 - - N 1037,3 29 0,0
30.03.2020 04:00:00 2,8 -0,8 - - 13 7 - - NNE 1037,8 35 0,0
30.03.2020 03:00:00 3,2 -0,5 - - 16 9 - - N 1038,4 10 0,0
30.03.2020 02:00:00 3,2 -0,6 - - 16 9 - - NNE 1039,0 40 0,0
30.03.2020 01:00:00 2,3 -1,0 - - 13 7 - - NNE 1039,4 30 0,0
30.03.2020 00:00:00 2,5 -1,7 - - 16 9 - - NNE 1039,6 35 0,0
29.03.2020 23:00:00 2,5 -3,9 - - 15 8 - - NNE 1039,9 10 0,0
29.03.2020 22:00:00 3,5 -5,4 - - 21 11 - - NE 1039,9 35 0,0
29.03.2020 21:00:00 4,2 -6,3 - - 26 14 48 26 NE 1039,9 10 0,0
29.03.2020 20:00:00 4,8 -5,8 - - 26 14 52 28 NE 1039,6 35 0,0
29.03.2020 19:00:00 5,5 -6,8 - - 37 20 57 31 NE 1039,1 10 0,0
29.03.2020 18:00:00 6,7 -6,1 - - 34 18 59 32 NNE 1038,7 40 0,0
29.03.2020 17:00:00 7,3 -6,8 - - 39 21 65 35 NE 1038,6 10 0,0
29.03.2020 16:00:00 7,6 -4,4 - - 31 17 59 32 NE 1038,2 40 0,0
29.03.2020 15:00:00 6,7 -3,6 - - 41 22 67 36 NE 1038,6 10 0,0
29.03.2020 14:00:00 6,9 -1,9 - - 31 17 54 29 NE 1038,6 30 0,0
29.03.2020 13:00:00 6,5 -2,0 - - 37 20 57 31 NE 1038,8 10 0,0
29.03.2020 12:00:00 5,1 -0,7 - - 39 21 61 33 NE 1039,0 13 0,0
29.03.2020 11:00:00 6,2 -4,4 - - 37 20 67 36 NNE 1037,8 25 0,0
29.03.2020 10:00:00 6,1 -4,7 7,9 8,7 41 22 65 35 NNE 1037,5 29 0,0
29.03.2020 09:00:00 5,2 -5,3 - - 35 19 59 32 NE 1037,1 10 0,0
29.03.2020 08:00:00 3,8 -3,5 - - 21 11 - - NNE 1036,7 10 0,0
29.03.2020 07:00:00 3,4 -2,0 - - 24 13 - - NNE 1036,4 10 0,0
29.03.2020 06:00:00 3,9 -2,6 - - 24 13 46 25 NNE 1036,3 30 0,0
29.03.2020 05:00:00 4,4 -2,8 - - 24 13 - - NNE 1035,8 10 0,0
29.03.2020 04:00:00 4,0 -2,1 - - 18 10 - - NNE 1035,6 24 0,0
29.03.2020 03:00:00 3,8 -1,1 - - 16 9 - - NNE 1035,7 10 0,0
29.03.2020 02:00:00 3,9 0,1 - - 21 11 - - NNE 1035,6 25 0,0
29.03.2020 01:00:00 4,6 0,5 - - 22 12 - - NNE 1035,1 27 0,0
29.03.2020 00:00:00 4,9 0,6 - - 24 13 - - NNE 1034,4 10 0,0
28.03.2020 23:00:00 4,9 0,3 - - 28 15 - - NNE 1034,1 10 0,0
28.03.2020 22:00:00 5,6 0,0 - - 26 14 - - NE 1033,7 10 0,0
28.03.2020 21:00:00 6,4 -0,8 - - 26 14 48 26 NE 1033,3 10 0,0
28.03.2020 20:00:00 7,3 0,2 - - 29 16 48 26 NE 1032,2 10 0,0
28.03.2020 19:00:00 8,5 -0,9 - - 29 16 59 32 NE 1031,3 10 0,0
28.03.2020 18:00:00 9,5 -0,3 - - 31 17 54 29 NE 1030,4 10 0,0
28.03.2020 17:00:00 9,7 0,6 - - 34 18 54 29 NE 1030,0 10 0,0
28.03.2020 16:00:00 10,0 1,3 - - 29 16 50 27 NE 1029,8 10 0,0
28.03.2020 15:00:00 9,4 1,6 - - 31 17 54 29 NE 1029,9 10 0,0
28.03.2020 14:00:00 9,6 2,6 - - 29 16 52 28 NE 1029,9 10 0,0
28.03.2020 13:00:00 10,4 2,7 - - 39 21 52 28 NE 1029,4 10 0,0
28.03.2020 12:00:00 10,3 1,4 - - 37 20 55 30 NE 1028,9 10 0,0
28.03.2020 11:00:00 9,4 1,2 - - 34 18 48 26 NE 1028,4 18 0,0
28.03.2020 10:00:00 7,8 1,3 8,0 8,7 35 19 50 27 NNE 1027,9 12 0,0
28.03.2020 09:00:00 6,3 1,1 - - 26 14 - - NE 1027,5 10 0,0
28.03.2020 08:00:00 5,1 1,7 - - 24 13 - - NE 1027,1 9 0,0
28.03.2020 07:00:00 4,8 1,9 - - 22 12 - - NE 1026,5 9 0,0
28.03.2020 06:00:00 4,6 1,4 - - 16 9 - - NNE 1026,2 10 0,0
28.03.2020 05:00:00 4,7 1,2 - - 21 11 - - NNE 1025,9 10 0,0
28.03.2020 04:00:00 4,7 1,1 - - 21 11 - - NNE 1025,6 10 0,0
28.03.2020 03:00:00 4,7 0,9 - - 15 8 - - NNE 1025,9 10 0,0
28.03.2020 02:00:00 5,0 1,0 - - 13 7 - - NE 1025,8 13 0,0
28.03.2020 01:00:00 5,4 1,4 - - 21 11 - - NNE 1025,4 10 0,0
28.03.2020 00:00:00 5,7 1,6 - - 22 12 - - NNE 1025,4 12 0,0
27.03.2020 23:00:00 6,0 1,6 - - 24 13 - - NNE 1025,3 10 0,0
27.03.2020 22:00:00 6,8 0,9 - - 22 12 - - NE 1024,9 10 0,0
27.03.2020 21:00:00 7,8 0,9 - - 22 12 - - NNE 1024,7 10 0,0
27.03.2020 20:00:00 9,8 -1,5 - - 26 14 - - NE 1023,9 25 0,0
27.03.2020 19:00:00 11,4 -1,4 - - 24 13 - - NE 1023,2 10 0,0
27.03.2020 18:00:00 12,7 -1,3 - - 28 15 - - NE 1022,5 25 0,0
27.03.2020 17:00:00 13,2 -0,7 - - 29 16 - - NE 1022,4 10 0,0
27.03.2020 16:00:00 13,3 -0,9 - - 28 15 46 25 ENE 1022,7 10 0,0
27.03.2020 15:00:00 13,4 -0,4 - - 24 13 - - NE 1023,2 10 0,0
27.03.2020 14:00:00 12,7 -0,5 - - 28 15 - - ENE 1023,5 10 0,0
27.03.2020 13:00:00 12,0 0,6 - - 22 12 - - NE 1024,0 15 0,0
27.03.2020 12:00:00 11,0 -0,8 - - 24 13 - - NE 1024,2 14 0,0
27.03.2020 11:00:00 9,8 -0,1 - - 21 11 - - NE 1024,3 10 0,0
27.03.2020 10:00:00 6,7 1,0 7,9 8,7 16 9 - - NE 1024,5 10 0,0
27.03.2020 09:00:00 4,4 1,4 - - 15 8 - - NNE 1024,3 7 0,0
27.03.2020 08:00:00 2,5 0,8 - - 16 9 - - NNE 1024,3 6 0,0
27.03.2020 07:00:00 1,8 0,1 - - 16 9 - - NNE 1024,0 6 0,0
27.03.2020 06:00:00 1,9 0,0 - - 15 8 - - NNE 1023,9 6 0,0
27.03.2020 05:00:00 2,1 -0,2 - - 15 8 - - NNE 1023,8 7 0,0
27.03.2020 04:00:00 2,3 -0,3 - - 11 6 - - NNE 1023,8 8 0,0
27.03.2020 03:00:00 2,5 -0,8 - - 5 3 - - NNE 1023,9 9 0,0
27.03.2020 02:00:00 3,0 -0,9 - - 9 5 - - NNE 1024,1 10 0,0
27.03.2020 01:00:00 3,9 -1,1 - - 11 6 - - NE 1024,2 10 0,0
27.03.2020 00:00:00 4,6 -1,7 - - 15 8 - - NE 1024,2 13 0,0
26.03.2020 23:00:00 5,6 -2,9 - - 15 8 - - ENE 1024,2 10 0,0
26.03.2020 22:00:00 6,5 -2,0 - - 11 6 - - E 1023,8 10 0,0
26.03.2020 21:00:00 7,5 -2,6 - - 9 5 - - E 1023,3 10 0,0
26.03.2020 20:00:00 9,9 -7,6 - - 18 10 - - ENE 1022,8 10 0,0
26.03.2020 19:00:00 11,4 -7,3 - - 22 12 - - E 1022,3 10 0,0
26.03.2020 18:00:00 12,8 -5,2 - - 22 12 - - ENE 1022,0 10 0,0
26.03.2020 17:00:00 12,8 -5,9 - - 22 12 - - ENE 1022,2 10 0,0
26.03.2020 16:00:00 13,3 -3,6 - - 24 13 - - ENE 1022,4 10 0,0
26.03.2020 15:00:00 13,2 -1,7 - - 22 12 - - NE 1022,6 10 0,0
26.03.2020 14:00:00 12,2 -3,3 - - 22 12 - - ENE 1023,2 10 0,0
26.03.2020 13:00:00 11,9 -2,8 - - 28 15 - - ENE 1023,5 20 0,0
26.03.2020 12:00:00 10,9 -2,3 - - 24 13 - - ENE 1023,7 10 0,0
26.03.2020 11:00:00 9,4 -0,4 - - 22 12 - - NE 1024,0 10 0,0
26.03.2020 10:00:00 6,4 0,7 7,9 8,7 15 8 - - NE 1024,1 10 0,0
26.03.2020 09:00:00 3,4 0,0 - - 15 8 - - NNE 1023,8 8 0,0
26.03.2020 08:00:00 1,8 -0,9 - - 15 8 - - NE 1023,7 8 0,0
26.03.2020 07:00:00 1,2 -1,6 - - 11 6 - - NNE 1023,4 7 0,0
26.03.2020 06:00:00 1,4 -1,5 - - 15 8 - - NNE 1023,2 8 0,0
26.03.2020 05:00:00 -0,9 -3,2 - - 4 2 - - NE 1023,2 10 0,0
26.03.2020 04:00:00 -0,6 -3,3 - - 5 3 - - NNW 1023,5 12 0,0
26.03.2020 03:00:00 -0,1 -3,5 - - 8 4 - - N 1023,8 10 0,0
26.03.2020 02:00:00 0,2 -3,6 - - 8 4 - - NW 1023,9 10 0,0
26.03.2020 01:00:00 1,2 -3,3 - - 5 3 - - NW 1024,2 10 0,0
26.03.2020 00:00:00 2,9 -3,2 - - 8 4 - - ENE 1024,3 18 0,0
25.03.2020 23:00:00 4,7 -2,8 - - 13 7 - - E 1024,4 18 0,0
25.03.2020 22:00:00 5,9 -3,6 - - 9 5 - - ENE 1024,1 20 0,0
25.03.2020 21:00:00 7,2 -4,6 - - 11 6 - - E 1023,9 10 0,0
25.03.2020 20:00:00 8,5 -5,5 - - 15 8 - - E 1023,4 10 0,0
25.03.2020 19:00:00 10,5 -6,4 - - 18 10 - - E 1023,1 10 0,0
25.03.2020 18:00:00 12,0 -9,2 - - 16 9 - - E 1023,1 10 0,0
25.03.2020 17:00:00 13,1 -6,7 - - 16 9 - - E 1023,0 10 0,0
25.03.2020 16:00:00 13,7 -6,6 - - 16 9 - - E 1023,4 10 0,0
25.03.2020 15:00:00 13,9 -5,5 - - 13 7 - - ESE 1023,9 10 0,0
25.03.2020 14:00:00 13,7 -4,0 - - 11 6 - - ESE 1024,4 10 0,0
25.03.2020 13:00:00 12,7 -5,4 - - 16 9 - - E 1024,8 10 0,0
25.03.2020 12:00:00 11,7 -6,1 - - 9 5 - - ESE 1025,1 30 0,0
25.03.2020 11:00:00 - - - - - - - - - - - -

tt = temperature
td = dewpoint
tt -20cm = temperature -20cm
tt -100cm = temperature -100cm
ff = wind speed
fx = gusts
dd = wind direction
ppp = reduced air pressure
vv = visibility
rr = precipitation

Next stations